IK1QAD-3 Weather Reports


time (UTC)temp
F
wind
direction
speed
knots
gust
knots
rain 1hr
in
rain 24hr
in
rain mn
in
humidity
%
barometer
mb
20260507090843 66 103 7.0 10.4 0.00 0.00 0.00 75 1012.7
20260507090343 66 59 4.3 10.4 0.00 0.00 0.00 77 1012.6
20260507085840 66 123 6.1 10.4 0.00 0.00 0.00 75 1012.5
20260507085334 66 103 7.0 10.4 0.00 0.00 0.00 75 1012.5
20260507084833 66 136 5.2 10.4 0.00 0.00 0.00 75 1012.6
20260507084328 66 144 4.3 10.4 0.00 0.00 0.00 75 1012.5
20260507083825 66 104 7.0 10.4 0.00 0.00 0.00 74 1012.4
20260507083324 66 71 4.3 10.4 0.00 0.00 0.00 72 1012.4
20260507082838 67 109 4.3 9.6 0.00 0.00 0.00 71 1012.3
20260507082336 67 126 4.3 10.4 0.00 0.00 0.00 71 1012.2
20260507081831 67 113 5.2 10.4 0.00 0.00 0.00 69 1012.2
20260507081331 67 61 4.3 9.6 0.00 0.00 0.00 69 1012.3
20260507080829 67 135 3.5 8.7 0.00 0.00 0.00 68 1012.2
20260507080342 67 111 3.5 9.6 0.00 0.00 0.00 69 1012.2
20260507075838 66 96 5.2 9.6 0.00 0.00 0.00 68 1012.2
20260507075331 66 166 3.5 6.1 0.00 0.00 0.00 70 1012.1
20260507074826 65 164 2.6 4.3 0.00 0.00 0.00 70 1012.2
20260507074325 66 294 1.7 5.2 0.00 0.00 0.00 69 1012.2
20260507073839 65 164 0.9 5.2 0.00 0.00 0.00 70 1012.2
20260507073337 65 38 0.9 5.2 0.00 0.00 0.00 70 1012.2
20260507072830 65 85 2.6 6.1 0.00 0.00 0.00 70 1012.2
20260507072326 65 150 2.6 6.1 0.00 0.00 0.00 72 1012.1
20260507071824 65 285 0.9 2.6 0.00 0.00 0.00 72 1012.2
20260507071339 65 66 0.9 2.6 0.00 0.00 0.00 73 1012.2
20260507070836 64 210 0.9 2.6 0.00 0.00 0.00 74 1012.2
20260507070327 64 128 0.9 3.5 0.00 0.00 0.00 75 1012.2
20260507065824 63 129 2.6 3.5 0.00 0.00 0.00 75 1012.1
20260507065344 63 183 0.9 5.2 0.00 0.00 0.00 76 1012.0
20260507064837 63 128 0.9 5.2 0.00 0.00 0.00 76 1012.0
20260507064334 63 115 2.6 3.5 0.00 0.00 0.00 75 1011.9
20260507063830 63 135 1.7 3.5 0.00 0.00 0.00 76 1011.9
20260507063327 62 175 0.0 6.1 0.00 0.00 0.00 77 1011.8
20260507062843 62 138 3.5 6.1 0.00 0.00 0.00 76 1011.9
20260507062336 63 203 1.7 2.6 0.00 0.00 0.00 75 1011.8
20260507061838 63 174 0.9 1.7 0.00 0.00 0.00 75 1011.8
20260507061330 63 81 0.0 0.0 0.00 0.00 0.00 77 1011.8
20260507060828 62 69 0.0 0.0 0.00 0.00 0.00 78 1011.8
20260507060328 61 34 0.0 1.7 0.00 0.00 0.00 77 1011.9
20260507055836 61 34 0.0 4.3 0.00 0.00 0.00 79 1011.8
20260507055331 61 37 2.6 4.3 0.00 0.00 0.00 80 1011.8
20260507054845 60 57 1.7 2.6 0.00 0.00 0.00 81 1011.7
20260507054336 59 65 1.7 2.6 0.00 0.00 0.00 82 1011.6
20260507053833 59 327 0.9 1.7 0.00 0.00 0.00 82 1011.5
20260507053328 58 26 0.9 2.6 0.00 0.00 0.00 84 1011.6
20260507052841 57 332 1.7 2.6 0.00 0.00 0.00 84 1011.4
20260507052329 57 328 1.7 3.5 0.00 0.00 0.00 84 1011.5
20260507051826 56 325 2.6 3.5 0.00 0.00 0.00 85 1011.3
20260507051344 56 341 2.6 3.5 0.00 0.00 0.00 86 1011.3
20260507050841 55 324 1.7 4.3 0.00 0.00 0.00 87 1011.2
20260507050342 55 16 2.6 4.3 0.00 0.00 0.00 88 1011.3
20260507045837 54 312 3.5 4.3 0.00 0.24 0.00 88 1011.2
20260507045337 54 325 2.6 5.2 0.00 0.24 0.00 88 1011.2
20260507044834 54 342 2.6 5.2 0.00 0.24 0.00 88 1011.0
20260507044328 54 327 3.5 5.2 0.00 0.24 0.00 87 1011.1
20260507043828 55 313 3.5 7.0 0.00 0.24 0.00 86 1011.0
20260507043343 55 322 3.5 7.0 0.00 0.24 0.00 86 1011.0
20260507042840 54 330 3.5 7.0 0.00 0.24 0.00 87 1011.0
20260507042340 54 338 1.7 5.2 0.00 0.24 0.00 88 1011.1
20260507041833 54 360 2.6 5.2 0.00 0.24 0.00 88 1011.1
20260507041330 54 320 2.6 4.3 0.00 0.24 0.00 88 1011.1
20260507040843 54 331 2.6 4.3 0.00 0.24 0.00 88 1010.9
20260507040344 54 323 2.6 4.3 0.00 0.24 0.00 87 1010.9
20260507035838 55 329 2.6 4.3 0.00 0.24 0.00 86 1010.9
20260507035332 54 329 2.6 4.3 0.00 0.24 0.00 87 1010.8
20260507034830 54 346 2.6 5.2 0.00 0.24 0.00 88 1010.8
20260507034324 54 355 2.6 5.2 0.00 0.24 0.00 87 1010.8
20260507033844 55 322 3.5 7.8 0.00 0.24 0.00 86 1010.8
20260507033342 55 321 4.3 7.8 0.00 0.24 0.00 86 1010.7
20260507032837 55 329 1.7 8.7 0.00 0.24 0.00 86 1010.7
20260507032335 55 327 2.6 7.0 0.00 0.24 0.00 86 1010.7
20260507031828 55 326 3.5 7.0 0.00 0.24 0.00 86 1010.6
20260507031325 55 10 3.5 7.8 0.00 0.24 0.00 87 1010.7
20260507030842 55 12 1.7 4.3 0.00 0.24 0.00 88 1010.6
20260507030337 55 9 2.6 7.0 0.00 0.24 0.00 88 1010.6
20260507025833 54 342 2.6 7.8 0.00 0.24 0.00 89 1010.5
20260507025326 54 327 1.7 7.8 0.00 0.24 0.00 90 1010.6
20260507024825 54 350 2.6 4.3 0.00 0.24 0.00 91 1010.6
20260507024342 54 348 2.6 4.3 0.00 0.24 0.00 91 1010.6
20260507023836 54 319 1.7 4.3 0.00 0.24 0.00 91 1010.6
20260507023333 54 325 2.6 4.3 0.00 0.24 0.00 91 1010.7
20260507022827 54 335 1.7 3.5 0.00 0.24 0.00 91 1010.6
20260507022325 54 26 1.7 4.3 0.00 0.24 0.00 91 1010.6
20260507021824 54 341 1.7 4.3 0.00 0.24 0.00 91 1010.5
20260507021340 54 322 3.5 4.3 0.00 0.24 0.00 91 1010.5
20260507020836 54 321 2.6 4.3 0.00 0.24 0.00 91 1010.5
20260507020331 55 340 1.7 3.5 0.00 0.24 0.00 91 1010.5
20260507015843 55 324 2.6 3.5 0.00 0.24 0.00 91 1010.5
20260507015343 55 344 0.9 3.5 0.00 0.24 0.00 90 1010.4
20260507014839 55 328 1.7 3.5 0.00 0.24 0.00 90 1010.3
20260507014341 55 332 1.7 3.5 0.00 0.24 0.00 90 1010.3
20260507013836 55 340 1.7 3.5 0.00 0.24 0.00 89 1010.3
20260507013334 55 360 2.6 3.5 0.00 0.24 0.00 89 1010.2
20260507012831 56 342 1.7 4.3 0.00 0.24 0.00 89 1010.2
20260507012343 56 336 3.5 5.2 0.00 0.24 0.00 89 1010.3
20260507011841 56 350 3.5 5.2 0.00 0.24 0.00 90 1010.3
20260507011336 55 317 3.5 7.0 0.00 0.24 0.00 90 1010.2
20260507010834 55 331 1.7 4.3 0.00 0.24 0.00 90 1010.3
20260507010332 55 321 1.7 4.3 0.00 0.24 0.00 90 1010.4
20260507005844 56 328 3.5 4.3 0.00 0.35 0.00 90 1010.4
20260507005342 56 344 2.6 3.5 0.00 0.35 0.00 90 1010.4
20260507004837 56 338 1.7 3.5 0.00 0.35 0.00 89 1010.4
20260507004336 56 333 1.7 3.5 0.00 0.35 0.00 89 1010.5
20260507003837 56 322 1.7 3.5 0.00 0.35 0.00 89 1010.5
20260507003332 56 360 1.7 7.0 0.00 0.35 0.00 88 1010.4
20260507002830 56 12 3.5 7.8 0.00 0.35 0.00 88 1010.4
20260507002327 56 32 3.5 7.8 0.00 0.35 0.00 89 1010.4
20260507001843 56 349 2.6 5.2 0.00 0.35 0.00 90 1010.4
20260507001343 56 332 2.6 4.3 0.00 0.35 0.00 91 1010.3
20260507000836 55 333 1.7 4.3 0.00 0.35 0.00 91 1010.3
20260507000332 55 17 1.7 4.3 0.00 0.35 0.00 91 1010.2
20260506235831 55 331 2.6 4.3 0.00 0.59 0.00 91 1010.3
20260506235327 55 338 0.9 3.5 0.00 0.59 0.00 91 1010.3
20260506234843 55 9 0.9 3.5 0.00 0.59 0.00 92 1010.3
20260506234340 55 329 1.7 3.5 0.00 0.59 0.00 92 1010.3
20260506233838 55 325 1.7 2.6 0.00 0.59 0.00 92 1010.2
20260506233335 55 11 0.9 4.3 0.00 0.59 0.00 92 1010.3
20260506232828 55 325 2.6 4.3 0.00 0.59 0.00 92 1010.4
20260506232326 55 312 2.6 4.3 0.00 0.59 0.00 91 1010.4
20260506231843 55 329 2.6 3.5 0.00 0.59 0.00 91 1010.3
20260506231343 55 325 2.6 3.5 0.00 0.59 0.00 90 1010.3
20260506230841 55 355 1.7 5.2 0.00 0.59 0.00 90 1010.3
20260506230335 56 319 4.3 5.2 0.00 0.59 0.00 90 1010.2
20260506225830 56 327 3.5 4.3 0.00 0.59 0.00 90 1010.2
20260506225325 56 319 2.6 3.5 0.00 0.59 0.00 90 1010.2
20260506224841 56 323 2.6 3.5 0.00 0.59 0.00 89 1010.2
20260506224339 57 339 0.9 3.5 0.00 0.59 0.00 89 1010.2
20260506223835 57 329 1.7 3.5 0.00 0.59 0.00 90 1010.2
20260506223336 57 316 1.7 3.5 0.00 0.59 0.00 89 1010.1
20260506222828 57 5 0.9 3.5 0.00 0.59 0.00 88 1010.2
20260506222326 57 341 1.7 4.3 0.00 0.59 0.00 88 1010.2
20260506221844 57 19 2.6 5.2 0.00 0.59 0.00 89 1010.2
20260506221338 57 26 2.6 7.0 0.00 0.59 0.00 89 1010.3
20260506220835 57 5 2.6 7.0 0.00 0.59 0.00 89 1010.1
20260506220328 57 5 1.7 3.5 0.00 0.59 0.00 90 1010.2
20260506215836 57 348 2.6 3.5 0.00 0.59 0.12 90 1010.1
20260506215335 57 330 2.6 3.5 0.00 0.59 0.12 89 1010.1
20260506214830 57 328 2.6 3.5 0.00 0.59 0.12 90 1010.0
20260506214330 57 17 0.9 3.5 0.00 0.59 0.12 90 1010.0
20260506213844 56 18 2.6 3.5 0.00 0.59 0.12 90 1010.0
20260506213343 56 324 0.9 4.3 0.00 0.59 0.12 90 1010.0
20260506212835 56 340 2.6 4.3 0.00 0.59 0.12 89 1009.9
20260506212327 56 311 3.5 4.3 0.00 0.59 0.12 88 1009.9
20260506211824 56 312 2.6 3.5 0.00 0.59 0.12 87 1009.9
20260506211342 56 323 2.6 3.5 0.00 0.59 0.12 87 1009.9
20260506210839 57 355 1.7 4.3 0.00 0.59 0.12 87 1009.9
20260506210337 57 326 3.5 4.3 0.00 0.59 0.12 86 1009.9
20260506205830 57 324 3.5 4.3 0.00 0.59 0.12 85 1009.8
20260506205330 58 339 0.9 5.2 0.00 0.59 0.12 86 1009.9
20260506204842 57 360 1.7 5.2 0.00 0.59 0.12 86 1009.8
20260506204341 57 333 2.6 4.3 0.00 0.59 0.12 85 1009.7
20260506203840 58 342 1.7 3.5 0.00 0.59 0.12 85 1009.6
20260506203335 58 13 2.6 4.3 0.00 0.59 0.12 84 1009.5
20260506202831 58 325 2.6 4.3 0.00 0.59 0.12 83 1009.5
20260506202344 59 340 2.6 3.5 0.00 0.59 0.12 82 1009.4
20260506201843 60 321 2.6 3.5 0.00 0.59 0.12 80 1009.2
20260506201338 61 124 1.7 4.3 0.00 0.59 0.12 79 1009.2
20260506200828 60 308 2.6 5.2 0.00 0.59 0.12 81 1009.2
20260506200328 60 323 2.6 7.8 0.00 0.59 0.12 82 1009.1
20260506195841 60 331 4.3 9.6 0.00 0.59 0.12 82 1009.1
20260506195341 59 333 5.2 9.6 0.00 0.59 0.12 82 1009.0
20260506194837 59 348 3.5 7.8 0.00 0.59 0.12 81 1008.8
20260506194326 59 360 3.5 7.0 0.00 0.59 0.12 81 1008.5
20260506193844 58 334 2.6 4.3 0.00 0.59 0.12 81 1008.5
20260506193333 59 321 2.6 4.3 0.00 0.59 0.12 81 1008.3
20260506192843 59 360 0.9 2.6 0.00 0.59 0.12 81 1008.2
20260506192335 59 5 1.7 4.3 0.00 0.59 0.12 80 1008.2
20260506191833 59 327 1.7 7.0 0.00 0.59 0.12 81 1008.0
20260506191331 59 327 4.3 7.8 0.00 0.59 0.12 80 1008.0
20260506190825 61 318 5.2 7.0 0.00 0.59 0.12 76 1007.9
20260506190343 62 316 0.0 3.5 0.00 0.59 0.12 74 1007.9
20260506185837 62 317 1.7 3.5 0.00 0.59 0.12 75 1007.8
20260506185333 62 146 1.7 3.5 0.00 0.59 0.12 74 1007.8
20260506184828 62 284 0.0 1.7 0.00 0.59 0.12 74 1007.8
20260506184341 63 291 0.0 2.6 0.00 0.59 0.12 74 1007.7
20260506183839 63 270 0.9 2.6 0.00 0.59 0.12 74 1007.6
20260506183335 64 303 1.7 7.8 0.00 0.59 0.12 74 1007.6
20260506182830 64 209 3.5 7.8 0.00 0.59 0.12 73 1007.5
20260506182326 64 154 2.6 8.7 0.00 0.59 0.12 74 1007.5
20260506181844 65 162 3.5 8.7 0.00 0.59 0.12 73 1007.5
20260506181343 65 143 2.6 11.3 0.00 0.59 0.12 66 1007.4
20260506180839 65 210 7.0 11.3 0.00 0.59 0.12 65 1007.3
20260506180336 65 231 5.2 13.0 0.00 0.59 0.12 65 1007.3
20260506175832 65 218 4.3 7.8 0.00 0.59 0.12 68 1007.3
20260506175326 66 134 2.6 10.4 0.00 0.59 0.12 68 1007.2
20260506174825 66 215 4.3 12.2 0.00 0.59 0.12 65 1007.1
20260506174326 66 218 5.2 12.2 0.00 0.59 0.12 65 1007.1
20260506173841 66 194 1.7 12.2 0.00 0.59 0.12 66 1006.9
20260506173342 66 253 6.1 11.3 0.00 0.59 0.12 65 1007.0
20260506172831 66 223 6.1 12.2 0.00 0.59 0.12 65 1006.9
20260506172329 66 216 5.2 13.9 0.00 0.59 0.12 65 1006.9
20260506171829 66 208 7.8 13.9 0.00 0.59 0.12 65 1007.0
20260506171342 67 188 3.5 15.6 0.00 0.59 0.12 65 1007.0
20260506170838 67 222 9.6 14.8 0.00 0.59 0.12 65 1006.8
20260506170335 67 302 6.1 12.2 0.00 0.59 0.12 65 1006.9
20260506165833 67 231 8.7 15.6 0.00 0.59 0.12 64 1006.8
20260506165333 67 220 9.6 15.6 0.00 0.59 0.12 64 1006.8
20260506164827 67 149 7.0 12.2 0.00 0.59 0.12 65 1006.7
20260506164327 67 231 7.0 13.0 0.00 0.59 0.12 66 1006.7
20260506163841 68 183 6.1 16.5 0.00 0.59 0.12 65 1006.7
20260506163338 68 237 8.7 16.5 0.00 0.59 0.12 64 1006.7
20260506162835 68 219 8.7 13.9 0.00 0.59 0.12 65 1006.6
20260506162330 68 240 7.8 15.6 0.00 0.59 0.12 65 1006.6
20260506161829 68 222 5.2 17.4 0.00 0.59 0.12 66 1006.5
20260506161325 68 196 10.4 17.4 0.00 0.59 0.12 66 1006.5
20260506160839 68 218 7.0 17.4 0.00 0.59 0.12 68 1006.5
20260506160338 68 222 10.4 21.7 0.00 0.59 0.12 67 1006.5
20260506155830 68 211 7.8 16.5 0.00 0.59 0.12 67 1006.6
20260506155326 68 219 6.1 20.0 0.00 0.59 0.12 67 1006.5
20260506154839 68 221 7.0 19.1 0.00 0.59 0.12 68 1006.5
20260506154338 68 211 8.7 17.4 0.00 0.59 0.12 68 1006.5
20260506153834 68 259 7.0 13.0 0.00 0.59 0.12 69 1006.5
20260506153329 68 250 4.3 17.4 0.00 0.59 0.12 69 1006.5
20260506152842 68 221 4.3 17.4 0.00 0.59 0.12 70 1006.4
20260506152336 69 184 7.8 14.8 0.00 0.59 0.12 67 1006.5
20260506151836 69 249 4.3 13.0 0.00 0.59 0.12 70 1006.5
20260506151334 69 213 7.0 13.0 0.00 0.59 0.12 68 1006.4
20260506150826 69 198 3.5 11.3 0.00 0.59 0.12 70 1006.6
20260506150326 68 196 7.0 14.8 0.00 0.59 0.12 71 1006.6
20260506145839 68 224 7.0 14.8 0.00 0.59 0.12 70 1006.5
20260506145337 68 207 5.2 12.2 0.00 0.59 0.12 71 1006.6
20260506144836 67 188 7.0 15.6 0.00 0.59 0.12 73 1006.5
20260506144330 66 195 7.8 18.2 0.00 0.59 0.12 73 1006.6
20260506143844 67 153 10.4 19.1 0.00 0.59 0.12 74 1006.7
20260506143341 67 182 9.6 18.2 0.00 0.59 0.12 73 1006.6
20260506142838 67 171 7.8 20.9 0.00 0.59 0.12 76 1006.5
20260506142335 66 205 7.0 20.9 0.00 0.59 0.12 76 1006.6
20260506141831 67 144 7.8 16.5 0.00 0.59 0.12 76 1006.7
20260506141328 67 169 8.7 15.6 0.00 0.59 0.12 74 1006.7
20260506140843 67 202 8.7 19.1 0.00 0.59 0.12 74 1006.7
20260506140325 67 211 10.4 20.0 0.00 0.59 0.12 74 1006.7
20260506135842 68 155 9.6 18.2 0.00 0.59 0.12 72 1006.6
20260506135338 68 243 7.0 14.8 0.00 0.59 0.12 71 1006.7
20260506134835 67 233 7.8 19.1 0.00 0.59 0.12 73 1006.7
20260506134331 68 209 9.6 14.8 0.00 0.59 0.12 69 1006.7
20260506133831 69 249 7.8 19.1 0.00 0.59 0.12 66 1006.7
20260506133327 68 202 10.4 19.1 0.00 0.59 0.12 65 1006.7
20260506132840 68 239 14.8 24.3 0.00 0.59 0.12 64 1006.7
20260506132339 68 205 11.3 24.3 0.00 0.59 0.12 66 1006.7
20260506131832 68 222 11.3 17.4 0.00 0.59 0.12 65 1006.8
20260506131334 68 224 10.4 20.9 0.00 0.59 0.12 64 1006.9
20260506130830 68 229 12.2 21.7 0.00 0.59 0.12 66 1006.7
20260506130325 68 259 13.0 21.7 0.00 0.59 0.12 66 1006.8
20260506125840 68 237 12.2 21.7 0.00 0.59 0.12 67 1006.8
20260506125333 68 219 12.2 21.7 0.00 0.59 0.12 66 1006.7
20260506124829 68 203 11.3 18.2 0.00 0.59 0.12 67 1006.7
20260506124326 68 233 8.7 20.9 0.00 0.59 0.12 68 1006.8
20260506123843 68 245 9.6 24.3 0.00 0.59 0.12 68 1006.9
20260506123341 67 213 12.2 23.5 0.00 0.59 0.12 68 1006.9
20260506122838 67 218 15.6 22.6 0.00 0.59 0.12 66 1006.9
20260506122338 67 190 13.0 21.7 0.00 0.59 0.12 67 1006.9
20260506121834 67 182 10.4 21.7 0.00 0.59 0.12 70 1006.8
20260506121329 67 214 13.9 21.7 0.00 0.59 0.12 69 1006.8
20260506120828 67 180 7.8 18.2 0.00 0.59 0.12 72 1006.7
20260506120342 67 220 10.4 18.2 0.00 0.59 0.12 73 1006.8
20260506115334 66 156 11.3 24.3 0.00 0.59 0.12 76 1006.9
20260506114835 66 154 9.6 20.9 0.00 0.59 0.12 75 1006.9
20260506114328 66 146 11.3 19.1 0.00 0.59 0.12 75 1006.9
20260506113844 67 196 8.7 17.4 0.00 0.59 0.12 74 1006.7
20260506113342 66 188 10.4 21.7 0.00 0.59 0.12 75 1006.8
20260506112834 65 44 11.3 21.7 0.00 0.59 0.12 76 1006.9
20260506111828 65 198 13.0 21.7 0.00 0.59 0.12 74 1007.2
20260506111343 65 217 12.2 21.7 0.00 0.59 0.12 74 1007.3
20260506110843 65 202 11.3 26.9 0.00 0.59 0.12 75 1007.4
20260506110338 65 214 12.2 26.9 0.00 0.59 0.12 74 1007.2
20260506105832 65 213 11.3 19.1 0.00 0.59 0.12 78 1007.4
20260506105329 65 188 12.2 18.2 0.00 0.59 0.12 79 1007.4
20260506104824 65 211 8.7 18.2 0.00 0.59 0.12 79 1007.4
20260506104341 65 201 10.4 20.0 0.00 0.59 0.12 78 1007.5
20260506103837 64 254 9.6 20.0 0.00 0.59 0.12 79 1007.4
20260506103333 65 171 9.6 18.2 0.00 0.59 0.12 79 1007.5
20260506102826 64 229 8.7 18.2 0.00 0.59 0.12 79 1007.6
20260506102341 64 193 10.4 16.5 0.00 0.59 0.12 78 1007.6
20260506101836 64 169 8.7 17.4 0.00 0.59 0.12 78 1007.6
20260506101330 64 204 10.4 16.5 0.00 0.59 0.12 78 1007.7
20260506100825 64 205 10.4 16.5 0.00 0.59 0.12 79 1007.7
20260506100340 64 180 10.4 17.4 0.00 0.59 0.12 78 1007.8
20260506095836 64 218 9.6 19.1 0.00 0.59 0.12 79 1007.8
20260506095336 64 198 8.7 20.0 0.00 0.59 0.12 78 1007.8
20260506094830 63 243 8.7 20.0 0.00 0.59 0.12 79 1007.8
20260506094327 63 169 10.4 15.6 0.00 0.59 0.12 78 1007.9
20260506093843 64 192 7.8 15.6 0.00 0.59 0.12 79 1007.9
20260506093343 64 179 7.8 15.6 0.00 0.59 0.12 79 1007.8
20260506092839 63 219 7.0 16.5 0.00 0.59 0.12 81 1007.8
20260506092334 63 197 9.6 15.6 0.00 0.59 0.12 79 1007.8
20260506091833 63 178 10.4 17.4 0.00 0.59 0.12 79 1007.7
20260506091326 64 204 6.1 12.2 0.00 0.59 0.12 79 1007.8